SWA3719 KTUL-KLAS

Flight info

Callsign SWA3719
Flight time N/A
Altitude 40000
Route YARNS IFI KA33Y MIRME GUP HAHAA RKSTR4
Aircraft B737/M-SDE2E3GIJ4RWZ/LB1D1

Departure

Time 2026-04-25 23:43
Airport Tulsa International Airport (KTUL)

Arrival

Time N/A
Airport Harry Reid International Airport (KLAS)
Time Latitude Longitude Altitude Speed Heading
2026-04-25 23:14 36.19223 -95.89000 665 ft 0 kts 155°
2026-04-25 23:27 36.19243 -95.89013 664 ft 4 kts 142°
2026-04-25 23:27 36.19258 -95.89035 665 ft 4 kts 93°
2026-04-25 23:27 36.19255 -95.89051 662 ft 0 kts 37°
2026-04-25 23:29 36.19257 -95.89049 664 ft 1 kts 37°
2026-04-25 23:30 36.19277 -95.89030 666 ft 6 kts 37°
2026-04-25 23:30 36.19321 -95.88988 666 ft 10 kts 38°
2026-04-25 23:30 36.19388 -95.88925 666 ft 14 kts 35°
2026-04-25 23:30 36.19444 -95.88837 667 ft 14 kts 85°
2026-04-25 23:31 36.19446 -95.88721 667 ft 13 kts 91°
2026-04-25 23:31 36.19451 -95.88611 666 ft 13 kts 62°
2026-04-25 23:31 36.19532 -95.88590 669 ft 12 kts 357°
2026-04-25 23:31 36.19623 -95.88590 668 ft 15 kts
2026-04-25 23:32 36.19739 -95.88587 667 ft 19 kts
2026-04-25 23:32 36.19875 -95.88533 666 ft 22 kts 18°
2026-04-25 23:32 36.20028 -95.88470 666 ft 23 kts 18°
2026-04-25 23:32 36.20178 -95.88407 666 ft 22 kts 18°
2026-04-25 23:33 36.20329 -95.88375 666 ft 22 kts
2026-04-25 23:33 36.20478 -95.88363 666 ft 21 kts
2026-04-25 23:33 36.20622 -95.88352 666 ft 21 kts
2026-04-25 23:33 36.20763 -95.88345 666 ft 20 kts
2026-04-25 23:34 36.20900 -95.88336 666 ft 19 kts
2026-04-25 23:34 36.21033 -95.88327 666 ft 19 kts
2026-04-25 23:34 36.21161 -95.88319 666 ft 18 kts
2026-04-25 23:34 36.21285 -95.88311 666 ft 17 kts
2026-04-25 23:35 36.21391 -95.88273 666 ft 17 kts 74°
2026-04-25 23:35 36.21364 -95.88144 666 ft 16 kts 155°
2026-04-25 23:35 36.21253 -95.88143 668 ft 16 kts 183°
2026-04-25 23:35 36.20951 -95.88162 668 ft 77 kts 183°
2026-04-25 23:36 36.19223 -95.89000 665 ft 0 kts 155°
2026-04-25 23:38 36.19219 -95.89005 665 ft 1 kts 220°
2026-04-25 23:38 36.19229 -95.89021 664 ft 5 kts 314°
2026-04-25 23:38 36.19286 -95.89021 666 ft 13 kts 36°
2026-04-25 23:38 36.19380 -95.88933 666 ft 19 kts 33°
2026-04-25 23:39 36.19441 -95.88804 667 ft 18 kts 92°
2026-04-25 23:39 36.19448 -95.88631 667 ft 20 kts 79°
2026-04-25 23:39 36.19573 -95.88592 669 ft 20 kts 359°
2026-04-25 23:39 36.19740 -95.88584 667 ft 27 kts 13°
2026-04-25 23:40 36.19939 -95.88506 666 ft 32 kts 18°
2026-04-25 23:40 36.20149 -95.88419 666 ft 31 kts 18°
2026-04-25 23:40 36.20352 -95.88370 666 ft 29 kts
2026-04-25 23:40 36.20544 -95.88360 666 ft 27 kts
2026-04-25 23:41 36.20729 -95.88348 666 ft 25 kts
2026-04-25 23:41 36.20900 -95.88336 666 ft 24 kts
2026-04-25 23:41 36.21057 -95.88325 666 ft 23 kts
2026-04-25 23:41 36.21212 -95.88314 666 ft 22 kts
2026-04-25 23:42 36.21362 -95.88303 666 ft 21 kts
2026-04-25 23:42 36.21380 -95.88155 665 ft 21 kts 135°
2026-04-25 23:42 36.21236 -95.88143 668 ft 32 kts 183°
2026-04-25 23:42 36.20960 -95.88160 667 ft 88 kts 183°
2026-04-25 23:43 36.19719 -95.88204 856 ft 162 kts 179°
2026-04-25 23:43 36.18972 -95.88229 1462 ft 164 kts 180°
2026-04-25 23:43 36.17894 -95.88515 2450 ft 170 kts 211°
2026-04-25 23:43 36.17160 -95.89849 2847 ft 214 kts 251°
2026-04-25 23:44 36.16892 -95.91826 3175 ft 253 kts 257°
2026-04-25 23:44 36.16656 -95.94080 3934 ft 266 kts 258°
2026-04-25 23:44 36.16428 -95.96363 5050 ft 268 kts 259°
2026-04-25 23:44 36.16195 -95.98635 6297 ft 261 kts 259°
2026-04-25 23:45 36.15958 -96.00853 7374 ft 261 kts 260°
2026-04-25 23:45 36.15712 -96.03088 8411 ft 261 kts 261°
2026-04-25 23:45 36.15465 -96.05274 9531 ft 259 kts 261°
2026-04-25 23:45 36.15212 -96.07474 10484 ft 261 kts 261°
2026-04-25 23:46 36.14942 -96.09785 10878 ft 284 kts 261°
2026-04-25 23:46 36.14643 -96.12326 11089 ft 310 kts 261°
2026-04-25 23:46 36.14317 -96.15076 11279 ft 335 kts 261°
2026-04-25 23:46 36.13966 -96.18021 11455 ft 356 kts 261°
2026-04-25 23:47 36.13597 -96.21105 11910 ft 367 kts 261°
2026-04-25 23:47 36.13220 -96.24244 12561 ft 370 kts 261°
2026-04-25 23:47 36.12839 -96.27402 13240 ft 373 kts 261°
2026-04-25 23:47 36.12453 -96.30593 13853 ft 377 kts 261°
2026-04-25 23:48 36.12062 -96.33815 14462 ft 380 kts 261°
2026-04-25 23:48 36.11669 -96.37050 15096 ft 382 kts 262°
2026-04-25 23:48 36.11272 -96.40310 15702 ft 384 kts 262°
2026-04-25 23:48 36.10873 -96.43581 16311 ft 386 kts 262°
2026-04-25 23:49 36.10468 -96.46886 16892 ft 388 kts 262°
2026-04-25 23:49 36.10066 -96.50159 17401 ft 392 kts 262°
2026-04-25 23:49 36.09655 -96.53510 17911 ft 395 kts 262°
2026-04-25 23:49 36.09240 -96.56879 18373 ft 398 kts 262°
2026-04-25 23:50 36.08821 -96.60270 18811 ft 400 kts 262°
2026-04-25 23:50 36.08399 -96.63684 19240 ft 403 kts 263°
2026-04-25 23:50 36.07973 -96.67114 19674 ft 405 kts 263°
2026-04-25 23:50 36.07440 -96.70546 20094 ft 408 kts 259°
2026-04-25 23:51 36.06763 -96.73967 20504 ft 411 kts 258°
2026-04-25 23:51 36.06058 -96.77405 20907 ft 413 kts 258°
2026-04-25 23:51 36.05344 -96.80856 21257 ft 416 kts 258°
2026-04-25 23:51 36.04624 -96.84343 21572 ft 420 kts 258°
2026-04-25 23:52 36.03904 -96.87853 21884 ft 423 kts 258°
2026-04-25 23:52 36.03179 -96.91399 22196 ft 426 kts 258°
2026-04-25 23:52 36.02453 -96.94958 22547 ft 428 kts 258°
2026-04-25 23:52 36.01725 -96.98531 22904 ft 430 kts 258°
2026-04-25 23:53 36.00992 -97.02124 23222 ft 433 kts 259°
2026-04-25 23:53 36.00256 -97.05733 23490 ft 435 kts 259°
2026-04-25 23:53 35.99524 -97.09313 23771 ft 436 kts 258°
2026-04-25 23:53 35.98780 -97.12944 24074 ft 437 kts 258°
2026-04-25 23:54 35.98034 -97.16581 24371 ft 437 kts 258°
2026-04-25 23:54 35.97285 -97.20225 24645 ft 439 kts 258°
2026-04-25 23:54 35.96533 -97.23881 24910 ft 440 kts 258°
2026-04-25 23:54 35.95777 -97.27547 25183 ft 441 kts 258°
2026-04-25 23:55 35.95021 -97.31212 25453 ft 442 kts 258°
2026-04-25 23:55 35.94261 -97.34884 25784 ft 440 kts 258°
2026-04-25 23:55 35.93504 -97.38531 26191 ft 438 kts 258°
2026-04-25 23:55 35.92750 -97.42165 26614 ft 435 kts 258°
2026-04-25 23:56 35.92000 -97.45771 27023 ft 433 kts 258°
2026-04-25 23:56 35.91251 -97.49367 27450 ft 431 kts 258°
2026-04-25 23:56 35.90507 -97.52935 27904 ft 429 kts 258°
2026-04-25 23:56 35.89765 -97.56489 28398 ft 426 kts 258°
2026-04-25 23:57 35.89026 -97.60020 28917 ft 424 kts 258°
2026-04-25 23:57 35.88291 -97.63527 29493 ft 420 kts 258°
2026-04-25 23:57 35.87563 -97.66995 30013 ft 416 kts 259°
2026-04-25 23:57 35.86838 -97.70446 30445 ft 414 kts 259°
2026-04-25 23:58 35.86117 -97.73870 30886 ft 411 kts 259°
2026-04-25 23:58 35.85401 -97.77270 31366 ft 408 kts 259°
2026-04-25 23:58 35.84699 -97.80593 31819 ft 405 kts 259°
2026-04-25 23:58 35.83991 -97.83944 32249 ft 402 kts 259°
2026-04-25 23:59 35.83287 -97.87269 32658 ft 400 kts 259°
2026-04-25 23:59 35.82588 -97.90574 33073 ft 397 kts 259°
2026-04-25 23:59 35.81891 -97.93858 33485 ft 395 kts 259°
2026-04-25 23:59 35.81197 -97.97118 33873 ft 392 kts 259°
2026-04-26 00:00 35.80753 -97.99271 34080 ft 390 kts 262°
2026-04-26 00:00 35.80253 -98.03659 34434 ft 385 kts 269°
2026-04-26 00:00 35.80067 -98.06948 34655 ft 386 kts 269°
2026-04-26 00:00 35.79880 -98.10249 34885 ft 385 kts 269°
2026-04-26 00:01 35.79691 -98.13539 35141 ft 384 kts 269°
2026-04-26 00:01 35.79499 -98.16818 35369 ft 384 kts 269°
2026-04-26 00:01 35.79303 -98.20101 35578 ft 384 kts 269°
2026-04-26 00:01 35.79104 -98.23383 35800 ft 384 kts 269°
2026-04-26 00:02 35.78903 -98.26663 36031 ft 383 kts 269°
2026-04-26 00:02 35.78701 -98.29930 36237 ft 383 kts 269°
2026-04-26 00:02 35.78498 -98.33205 36446 ft 383 kts 269°
2026-04-26 00:02 35.78294 -98.36471 36661 ft 382 kts 269°
2026-04-26 00:03 35.78090 -98.39727 36874 ft 382 kts 269°
2026-04-26 00:03 35.77885 -98.42986 37064 ft 381 kts 269°
2026-04-26 00:03 35.77679 -98.46243 37280 ft 381 kts 269°
2026-04-26 00:03 35.77472 -98.49493 37497 ft 380 kts 269°
2026-04-26 00:04 35.77265 -98.52734 37691 ft 380 kts 269°
2026-04-26 00:04 35.77058 -98.55980 37890 ft 379 kts 269°
2026-04-26 00:04 35.76849 -98.59215 38090 ft 379 kts 269°
2026-04-26 00:04 35.76643 -98.62403 38278 ft 378 kts 269°
2026-04-26 00:05 35.76434 -98.65626 38458 ft 377 kts 269°
2026-04-26 00:05 35.76225 -98.68846 38584 ft 377 kts 269°
2026-04-26 00:05 35.76014 -98.72067 38670 ft 378 kts 269°
2026-04-26 00:06 35.75588 -98.78551 38815 ft 381 kts 269°
2026-04-26 00:06 35.75156 -98.85065 38945 ft 382 kts 269°
2026-04-26 00:06 35.74938 -98.88327 39058 ft 382 kts 269°
2026-04-26 00:07 35.74719 -98.91587 39150 ft 382 kts 268°
2026-04-26 00:07 35.74279 -98.98112 39308 ft 382 kts 268°
2026-04-26 00:08 35.73835 -99.04638 39475 ft 383 kts 268°
2026-04-26 00:08 35.73390 -99.11132 39640 ft 383 kts 268°
2026-04-26 00:09 35.72938 -99.17673 39699 ft 384 kts 268°
2026-04-26 00:09 35.72482 -99.24214 39698 ft 382 kts 268°
2026-04-26 00:10 35.72024 -99.30727 39706 ft 382 kts 268°
2026-04-26 00:10 35.71564 -99.37231 39705 ft 381 kts 268°
2026-04-26 00:11 35.71101 -99.43730 39712 ft 381 kts 268°
2026-04-26 00:11 35.70635 -99.50222 39714 ft 381 kts 268°
2026-04-26 00:12 35.70165 -99.56711 39709 ft 381 kts 268°
2026-04-26 00:12 35.69692 -99.63208 39704 ft 381 kts 268°
2026-04-26 00:13 35.69217 -99.69669 39696 ft 382 kts 268°
2026-04-26 00:13 35.68736 -99.76169 39696 ft 382 kts 268°
2026-04-26 00:14 35.68250 -99.82685 39691 ft 382 kts 267°
2026-04-26 00:14 35.67761 -99.89195 39697 ft 382 kts 267°
2026-04-26 00:15 35.67270 -99.95688 39691 ft 381 kts 267°
2026-04-26 00:15 35.66775 -100.02175 39698 ft 381 kts 267°
2026-04-26 00:16 35.66278 -100.08658 39699 ft 380 kts 267°
2026-04-26 00:16 35.65777 -100.15134 39701 ft 380 kts 267°
2026-04-26 00:17 35.65273 -100.21608 39707 ft 380 kts 267°